www.pogodaiklimat.ru

Погода и климат >> Архив погоды >> Норвегия >> Лиллехаммер


ПОГОДА в Лиллехаммере

  • Прогноз погоды в Лиллехаммере
  • Монитор погоды в Лиллехаммере

АРХИВ ПОГОДЫ в Лиллехаммере

Время (UTC), дата Ветер
(напр.,м/с)
 
Видим.   Явления Облачность Т
(С)
Тd
(С)
f
(%)
Тe
(С)
Тes
(С)
Комфортность P
(гПа)
Po
(гПа)
Тmin
(С)
Tmax
(С)
R
(мм)
R24
(мм)
S
(см)
13 10.07 СЗ 2
{4}
н/о н/о +24.5 +5.6 30 +24 +24 комфорт 1011.9 984.4
14 10.07 СЗ 2
{5}
н/о н/о +24.5 +3.3 25 +24 +24 комфорт 1011.3 983.8
15 10.07 З 2
{4}
н/о н/о +25.0 +4.1 26 +24 +24 комфорт 1010.9 983.4
16 10.07 З 1
{3}
н/о н/о +24.1 +4.4 28 +24 +24 комфорт 1010.7 983.2
17 10.07 ЮВ 1
{2}
н/о н/о +22.6 +6.6 36 +23 +23 комфорт 1010.8 983.1
18 10.07 С 1
{5}
н/о н/о +23.1 +6.5 34 +24 +24 комфорт 1010.5 982.9
19 10.07 СВ 1
{1}
н/о н/о +21.9 +6.6 37 +23 +23 комфорт 1010.5 982.8
20 10.07 штиль 0
{2}
н/о н/о +19.8 +9.7 52 +21 +21 комфорт 1010.8 982.9
21 10.07 СВ 1
{2}
н/о н/о +18.8 +7.9 49 +20 +20 1011.0 983.0
22 10.07 Ю 1
{2}
н/о н/о +16.3 +9.2 63 +17 +17 1011.5 983.2
23 10.07 В 1
{3}
н/о н/о +16.7 +6.7 52 +18 +18 1011.6 983.3
00 11.07 СВ 1
{3}
н/о н/о +16.0 +7.7 58 +17 +17 1011.7 983.4
01 11.07 СВ 2
{3}
н/о н/о +15.6 +6.9 56 +16 +16 1012.0 983.6
02 11.07 СВ 2
{3}
н/о н/о +14.9 +6.9 59 +15 +15 1011.9 983.5
03 11.07 СВ 2
{3}
н/о н/о +14.3 +6.8 61 +14 +14 1011.8 983.3
04 11.07 СВ 2
{4}
н/о н/о +13.8 +7.4 65 +13 +13 1011.9 983.4
05 11.07 штиль 0
{4}
н/о н/о +14.2 +8.6 69 +14 +14 1011.7 983.2
06 11.07 С 1
{4}
н/о н/о +16.0 +7.8 58 +17 +17 1011.4 983.1 +13.5 +23.2
07 11.07 СВ 1
{3}
н/о н/о +16.6 +7.8 56 +18 +18 1011.1 982.8
08 11.07 СЗ 1
{3}
н/о н/о +19.1 +9.0 52 +21 +21 комфорт 1010.5 982.6
09 11.07 СЗ 1
{2}
н/о н/о +20.6 +7.2 42 +23 +23 комфорт 1010.0 982.1
10 11.07 З 2
{3}
н/о н/о +21.9 +5.8 35 +22 +22 комфорт 1009.3 981.6
11 11.07 ЮЗ 2
{3}
н/о н/о +23.1 +8.5 39 +24 +24 комфорт 1008.5 981.0
12 11.07 ЮЗ 2
{4}
н/о н/о +24.3 +7.7 35 +25 +25 комфорт 1008.1 980.7
13 11.07 ЮЗ 3
{4}
н/о н/о +25.9 +7.1 30 +26 +26 жарко 1007.6 980.3
14 11.07 ЮЗ 2
{3}
н/о н/о +24.3 +6.7 32 +24 +24 комфорт 1007.6 980.2
15 11.07 ЮЗ 1
{3}
н/о н/о +23.8 +7.7 36 +24 +24 комфорт 1007.6 980.1
16 11.07 Ю 1
{3}
н/о н/о +24.4 +9.1 38 +25 +25 комфорт 1007.4 980.0
17 11.07 ЮЗ 1
{2}
н/о н/о +24.4 +10.3 41 +25 +25 комфорт 1007.1 979.7
18 11.07 СВ 1
{4}
н/о н/о +22.5 +8.2 40 +24 +24 комфорт 1007.4 979.8 +15.8 +26.3
19 11.07 СВ 1
{4}
н/о н/о +21.7 +7.8 41 +23 +23 комфорт 1007.3 979.6
20 11.07 СВ 1
{2}
н/о н/о +20.0 +8.8 48 +22 +22 комфорт 1007.6 979.8
21 11.07 ЮВ 2
{3}
н/о н/о +17.9 +10.0 60 +18 +18 1008.1 980.0
22 11.07 В 1
{2}
н/о н/о +17.3 +9.6 61 +18 +18 1008.6 980.5
23 11.07 штиль 0
{3}
н/о н/о +16.7 +9.5 62 +17 +17 1008.8 980.6
00 12.07 ЮВ 1
{4}
н/о н/о +15.0 +9.7 71 +16 +16 1008.9 980.6
01 12.07 Ю 2
{2}
н/о н/о +15.2 +9.4 68 +15 +15 1009.0 980.6
02 12.07 В 1
{2}
н/о н/о +15.2 +9.6 69 +16 +16 1009.2 980.9
03 12.07 штиль 0
{1}
н/о н/о +14.2 +9.8 75 +14 +14 1009.3 980.9
04 12.07 Ю 1
{1}
н/о н/о +14.1 +10.6 79 +14 +14 1009.5 981.0
05 12.07 З 1
{2}
н/о н/о +14.9 +11.0 77 +15 +15 1009.5 981.2
06 12.07 штиль 0
{2}
н/о н/о +15.9 +12.3 79 +16 +16 1009.8 981.6 +14.0 +22.5
07 12.07 ЮЗ 1
{2}
н/о н/о +17.1 +12.1 72 +18 +18 1009.6 981.5
08 12.07 ЮЗ 2
{2}
н/о н/о +18.1 +11.0 63 +19 +19 1009.2 981.2
09 12.07 ЮЗ 2
{3}
н/о н/о +19.7 +11.3 58 +22 +22 комфорт 1008.6 980.7
10 12.07 ЮЗ 3
{4}
н/о н/о +21.4 +10.9 51 +23 +23 комфорт 1008.1 980.4
11 12.07 ЮЗ 3
{5}
н/о н/о +23.1 +12.3 51 +26 +26 жарко 1007.4 979.8
12 12.07 Ю 2
{5}
н/о н/о +25.3 +11.6 42 +27 +27 жарко 1007.1 979.7
13 12.07 В 4
{8}
н/о н/о +18.8 +13.1 69 +20 +20 1007.7 979.8
14 12.07 З 2
{7}
н/о н/о +21.0 +13.2 61 +24 +24 комфорт 1008.0 980.3 1
15 12.07 ЮВ 2
{5}
н/о н/о +19.0 +14.9 77 +21 +21 комфорт 1007.8 979.9 1
16 12.07 Ю 2
{5}
н/о н/о +19.5 +12.9 66 +22 +22 комфорт 1007.4 979.5
17 12.07 ЮВ 1
{3}
н/о н/о +21.7 +12.0 54 +24 +24 комфорт 1007.5 979.8
18 12.07 Ю 1
{8}
н/о н/о +22.1 +12.0 53 +24 +24 комфорт 1007.4 979.8 +15.4 +25.3 3
19 12.07 С 1
{2}
н/о н/о +21.2 +13.0 59 +23 +23 комфорт 1007.7 980.0
20 12.07 С 1
{2}
н/о н/о +19.1 +13.8 71 +21 +21 комфорт 1008.1 980.2
21 12.07 С 1
{4}
н/о н/о +17.4 +13.7 79 +18 +18 1008.9 980.8
22 12.07 С 1
{4}
н/о н/о +16.9 +12.2 74 +18 +18 1009.6 981.4
23 12.07 СВ 2
{4}
н/о н/о +16.3 +8.7 61 +16 +16 1010.0 981.7
00 13.07 В 1
{4}
н/о н/о +14.5 +7.5 63 +15 +15 1010.4 982.0
01 13.07 В 1
{4}
н/о н/о +13.9 +7.2 64 +14 +14 1010.7 982.2
02 13.07 СВ 1
{3}
н/о н/о +13.2 +7.1 66 +14 +14 1011.1 982.5
03 13.07 СВ 1
{3}
н/о н/о +12.7 +7.5 71 +13 +13 1011.5 982.9
04 13.07 СВ 2
{3}
н/о н/о +12.6 +7.6 72 +12 +12 1011.5 982.9
05 13.07 С 1
{5}
н/о н/о +14.0 +8.0 67 +14 +14 1011.6 983.1
06 13.07 СВ 2
{5}
н/о н/о +15.4 +8.4 63 +15 +15 1011.3 982.9 +12.3 +22.6
07 13.07 СВ 2
{4}
н/о н/о +16.8 +8.4 58 +17 +17 1011.2 983.0
08 13.07 СВ 1
{3}
н/о н/о +19.3 +8.7 50 +21 +21 комфорт 1011.0 983.0
09 13.07 С 1
{3}
н/о н/о +20.8 +7.2 41 +23 +23 комфорт 1010.7 982.9
10 13.07 ЮЗ 2
{3}
н/о н/о +21.6 +7.8 41 +23 +23 комфорт 1010.3 982.6
11 13.07 З 2
{4}
н/о н/о +22.7 +6.4 35 +23 +23 комфорт 1010.0 982.3
12 13.07 ЮЗ 2
{4}
н/о н/о +23.5 +7.2 35 +24 +24 комфорт 1009.6 982.1
13 13.07 З 2
{4}
н/о н/о +24.5 +7.2 33 +25 +25 комфорт 1009.3 981.8
14 13.07 З 2
{3}
н/о н/о +25.2 +6.0 29 +25 +25 комфорт 1008.8 981.4
15 13.07 З 2
{4}
н/о н/о +25.5 +5.1 27 +25 +25 комфорт 1008.5 981.2
16 13.07 ЮЗ 2
{3}
н/о н/о +26.1 +6.5 29 +26 +26 жарко 1008.3 981.0
17 13.07 З 2
{4}
н/о н/о +25.5 +8.5 34 +26 +26 жарко 1008.2 980.9
18 13.07 ЮВ 4
{9}
н/о н/о +23.9 +10.2 42 +25 +25 комфорт 1009.1 981.6 +15.4 +26.2
19 13.07 Ю 3
{6}
н/о н/о +21.7 +10.6 49 +23 +23 комфорт 1010.4 982.6
20 13.07 Ю 1
{5}
н/о н/о +19.3 +12.5 65 +22 +22 комфорт 1011.3 983.3
21 13.07 ЮВ 1
{2}
н/о н/о +16.8 +11.9 73 +18 +18 1012.4 984.1
22 13.07 Ю 1
{3}
н/о н/о +16.4 +11.0 70 +17 +17 1012.9 984.6
23 13.07 СВ 1
{3}
н/о н/о +15.9 +11.1 73 +17 +17 1013.1 984.8
00 14.07 штиль 0
{6}
н/о н/о +14.4 +11.0 80 +14 +14 1013.6 985.1
01 14.07 Ю 1
{1}
н/о н/о +13.5 +10.9 84 +14 +14 1013.9 985.3
02 14.07 В 1
{2}
н/о н/о +13.2 +10.5 84 +13 +13 1013.8 985.2
03 14.07 штиль 0
{1}
н/о н/о +12.2 +10.2 88 +12 +12 1014.2 985.4
04 14.07 В 1
{1}
н/о н/о +12.9 +10.7 86 +13 +13 1014.3 985.6
05 14.07 ЮЗ 1
{1}
н/о н/о +13.6 +10.4 81 +14 +14 1014.2 985.6
06 14.07 ЮЗ 1
{1}
н/о н/о +14.8 +11.4 80 +15 +15 1014.1 985.6 +11.9 +23.8
07 14.07 С 1
{2}
н/о н/о +15.7 +10.3 70 +16 +16 1014.3 985.9
08 14.07 С 1
{3}
н/о н/о +15.9 +9.5 66 +17 +17 1014.2 985.8
09 14.07 С 2
{3}
н/о н/о +17.2 +9.5 61 +18 +18 1013.8 985.5
10 14.07 С 2
{4}
н/о н/о +16.8 +9.7 63 +17 +17 1013.7 985.4
11 14.07 СЗ 1
{4}
н/о н/о +20.1 +11.2 57 +23 +23 комфорт 1012.8 984.8
12 14.07 ЮЗ 2
{4}
н/о н/о +20.9 +11.2 54 +24 +24 комфорт 1012.2 984.3
13 14.07 ЮЗ 3
{5}
н/о н/о +22.3 +12.2 53 +25 +25 комфорт 1011.4 983.7
14 14.07 ЮЗ 3
{5}
н/о н/о +23.3 +13.3 53 +26 +26 жарко 1011.0 983.4
15 14.07 Ю 2
{6}
н/о н/о +22.3 +13.3 57 +25 +25 комфорт 1010.7 983.0
16 14.07 Ю 3
{6}
н/о н/о +22.3 +12.3 53 +25 +25 комфорт 1010.6 982.9
17 14.07 Ю 3
{5}
н/о н/о +22.9 +11.5 49 +25 +25 комфорт 1010.3 982.7
18 14.07 ЮВ 1
{6}
н/о н/о +21.8 +11.5 52 +24 +24 комфорт 1010.6 982.8 +14.8 +23.4
19 14.07 ЮВ 1
{4}
н/о н/о +20.6 +12.5 60 +24 +24 комфорт 1010.6 982.8
20 14.07 С 2
{6}
н/о н/о +17.1 +9.5 61 +17 +17 1012.1 983.9
21 14.07 ЮВ 2
{5}
н/о н/о +14.6 +12.2 86 +14 +14 1012.7 984.3
22 14.07 В 1
{3}
н/о н/о +13.5 +11.6 88 +14 +14 1013.5 984.9
23 14.07 ЮЗ 1
{2}
н/о н/о +13.0 +12.2 95 +13 +13 1013.1 984.5 1
00 15.07 ЮВ 1
{6}
н/о н/о +12.7 +12.1 96 +13 +13 1013.1 984.4
01 15.07 ЮВ 1
{1}
н/о н/о +12.4 +11.8 96 +12 +12 1013.1 984.4
02 15.07 В 1
{1}
н/о н/о +12.3 +11.7 96 +12 +12 1013.1 984.4
03 15.07 СВ 1
{2}
н/о н/о +11.6 +8.8 83 +11 +11 1013.0 984.2
04 15.07 штиль 0
{2}
н/о н/о +11.5 +10.1 91 +11 +11 1012.9 984.2
05 15.07 СВ 1
{3}
н/о н/о +11.9 +8.2 78 +12 +12 1013.2 984.5
06 15.07 СВ 1
{4}
н/о н/о +12.5 +7.5 72 +13 +13 1013.3 984.6 +11.5 +21.8 2
07 15.07 З 1
{2}
н/о н/о +13.3 +7.8 69 +14 +14 1013.2 984.6
08 15.07 ЮЗ 2
{3}
н/о н/о +14.0 +7.7 66 +14 +14 1013.0 984.4
09 15.07 ЮЗ 1
{2}
н/о н/о +14.7 +8.1 65 +15 +15 1012.6 984.2
10 15.07 З 2
{3}
н/о н/о +15.6 +7.8 60 +16 +16 1012.3 983.9
11 15.07 ЮЗ 1
{3}
н/о н/о +18.4 +7.7 50 +20 +20 1011.4 983.3
12 15.07 З 2
{4}
н/о н/о +18.2 +6.1 45 +19 +19 1010.9 982.8
13 15.07 ЮЗ 2
{3}
н/о н/о +17.8 +7.1 49 +18 +18 1010.7 982.6
14 15.07 З 1
{3}
н/о н/о +18.8 +6.5 45 +20 +20 1010.3 982.3
15 15.07 З 1
{4}
н/о н/о +18.6 +7.9 50 +20 +20 1010.0 982.0
16 15.07 З 1
{3}
н/о н/о +18.7 +7.0 46 +20 +20 1009.5 981.5
17 15.07 СВ 3
{7}
н/о н/о +18.3 +6.3 45 +19 +19 1009.2 981.2
18 15.07 СВ 1
{7}
н/о н/о +17.5 +6.9 50 +19 +19 1009.3 981.2 +12.5 +20.3
19 15.07 СЗ 2
{4}
н/о н/о +17.0 +7.8 55 +17 +17 1009.8 981.7
20 15.07 СВ 3
{9}
н/о н/о +14.1 +7.1 63 +13 +13 1011.0 982.6
21 15.07 С 2
{8}
н/о н/о +13.3 +6.4 63 +13 +13 1011.7 983.1
22 15.07 СВ 1
{3}
н/о н/о +12.1 +8.0 76 +12 +12 1011.9 983.2
23 15.07 СВ 2
{3}
н/о н/о +11.6 +7.9 78 +11 +11 1012.0 983.3
00 16.07 СВ 1
{9}
н/о н/о +10.7 +7.9 83 +10 +10 1012.5 983.7
01 16.07 З 1
{2}
н/о н/о +11.2 +7.7 79 +11 +11 1012.7 983.9
02 16.07 С 5
{8}
н/о н/о +11.9 +4.6 61 +10 +10 1012.8 984.1
03 16.07 С 3
{7}
н/о н/о +11.3 +4.1 61 +10 +10 1013.2 984.4
04 16.07 С 3
{8}
н/о н/о +11.1 +3.5 59 +10 +10 1013.3 984.5
05 16.07 С 5
{9}
н/о н/о +11.8 +3.0 55 +10 +10 1013.3 984.6
06 16.07 С 6
{10}
н/о н/о +12.4 +3.1 53 +10 +10 1013.6 984.8 +10.7 +17.6
07 16.07 С 6
{11}
н/о н/о +13.4 +3.1 50 +11 +11 1013.4 984.8
08 16.07 С 4
{11}
н/о н/о +14.9 +3.9 48 +14 +14 1013.4 985.0
09 16.07 С 4
{10}
н/о н/о +15.6 +4.2 47 +15 +15 1013.3 984.9
10 16.07 С 4
{9}
н/о н/о +17.3 +4.8 44 +17 +17 1012.9 984.7
11 16.07 С 6
{9}
н/о н/о +17.5 +4.9 43 +17 +17 1012.3 984.1
12 16.07 С 4
{11}
н/о н/о +17.7 +5.6 45 +17 +17 1012.2 984.1
13 16.07 СЗ 3
{7}
н/о н/о +19.5 +6.2 42 +20 +20 1012.1 984.1
14 16.07 С 2
{4}
н/о н/о +18.7 +6.3 44 +20 +20 1012.2 984.1
15 16.07 ЮЗ 1
{3}
н/о н/о +19.9 +5.9 40 +22 +22 комфорт 1012.0 984.1
16 16.07 СЗ 1
{4}
н/о н/о +20.9 +6.0 38 +23 +23 комфорт 1011.6 983.7
17 16.07 В 2
{7}
н/о н/о +20.6 +5.9 38 +22 +22 комфорт 1011.7 983.8
18 16.07 ЮЗ 2
{7}
н/о н/о +19.8 +7.0 43 +21 +21 комфорт 1011.5 983.6 +12.4 +21.2
19 16.07 ЮВ 1
{4}
н/о н/о +18.9 +6.3 44 +20 +20 1011.8 983.8
20 16.07 ЮВ 1
{3}
н/о н/о +15.6 +8.2 61 +16 +16 1012.4 984.1
21 16.07 В 1
{3}
н/о н/о +14.4 +7.3 62 +15 +15 1013.0 984.5
22 16.07 ЮВ 1
{2}
н/о н/о +12.6 +7.5 71 +13 +13 1013.4 984.7
23 16.07 штиль 0
{2}
н/о н/о +12.4 +8.7 78 +12 +12 1013.5 984.8
00 17.07 Ю 1
{4}
н/о н/о +11.8 +8.3 79 +12 +12 1013.6 984.8
01 17.07 ЮВ 1
{1}
н/о н/о +10.5 +7.3 81 +10 +10 1013.5 984.6
03 17.07 Ю 1
{2}
н/о н/о +10.0 +8.0 87 +10 +10 1013.2 984.3
04 17.07 штиль 0
{1}
н/о н/о +10.9 +8.2 83 +10 +10 1012.9 984.1
05 17.07 штиль 0
{1}
н/о н/о +11.6 +8.5 81 +11 +11 1012.8 984.0
06 17.07 штиль 0
{2}
н/о н/о +12.6 +9.4 81 +12 +12 1012.6 983.9 +9.8 +19.8
07 17.07 ЮЗ 2
{2}
н/о н/о +13.8 +8.4 70 +13 +13 1012.0 983.4
08 17.07 З 1
{3}
н/о н/о +15.3 +9.9 70 +16 +16 1011.3 983.0
09 17.07 З 1
{2}
н/о н/о +16.1 +10.0 67 +17 +17 1011.0 982.8

 

Местоположение метеостанции Лиллехаммер (Норвегия): широта 61.09 долгота 10.48 высота над уровнем моря 240 м.

В архиве по умолчанию представлена погода в Лиллехаммере за последнюю неделю. Архивные данные за месяц целиком и за предыдущие месяцы, начиная с января 2011 года, Вы можете получить, выбрав интересующий диапазон дат из раскрывающегося списка и нажав кнопку "Ввод!".


*Определитесь, кто Вы:
робот инопланетянин человек

Внимание! Время в таблицах - всемирное. Для получения местного времени необходимо прибавить поправку, которая равна 1 ч.

Смотрите также архив погоды в соседних городах и на ближайших метеорологических станциях:

Погода в Вест-Торпе (Норвегия) (30 км)
Погода в Кисе Па Хедмарк (Норвегия) (40 км)
Погода в Хамар аэропорту (Норвегия) (44 км)
Погода в Фаванге (Норвегия) (44 км)
Погода в Квитфеле (Норвегия) (46 км)
Погода в Хамаре (Норвегия) (46 км)
Погода в Апельсволле (Норвегия) (48 км)
Погода в Эвенстаде (Норвегия) (49 км)
Погода в Рена аэропорту (Норвегия) (49 км)
Погода в Фагернес аэропорту (Норвегия) (64 км)

Пояснения к столбцам:

Ветер - указаны скорость ветра в м/с - средняя за 10 мин, порывы в срок и между сроками (в фигурных скобках) и направление, откуда дует ветер: С - северный, СВ - северо-восточный, В - восточный, ЮВ - юго-восточный, Ю - южный, ЮЗ - юго-западный, З - западный, СЗ - северо-западный.
Видимость - горизонтальная дальность видимости в метрах или километрах. При видимости от 1 до 10 км при отсутствии осадков обычно наблюдается дымка, при ухудшении видимости до 1 км и менее - туман. В сухую погоду видимость может ухудшаться дымом, пылью или мглою.
Явления - указаны атмосферные явления, наблюдавшиеся в срок или в последний час перед сроком; фигурными скобками обозначены явления, наблюдавшиеся между сроками (за 1-3 часа до срока); квадратными скобками обозначены град или гололедные отложения с указанием их диаметра в мм.
Облачность - указаны через наклонную черту общая и нижняя облачность в баллах и высота нижней границы облаков в метрах; квадратными скобками обозначены формы облаков: Ci - перистые, Cs - перисто-слоистые, Cc - перисто-кучевые, Ac - высококучевые, As - высокослоистые, Sc - слоисто-кучевые, Ns - слоисто-дождевые, Cu - кучевые, Cb - кучево-дождевые. Подробнее классификацию облаков см. в Атласе облаков (PDF).
T - Температура воздуха - температура, измеренная на высоте 2 м над землей.
Td - Температура точки росы - температура, при понижении до которой содержащийся в воздухе водяной пар достигнет насыщения.
f - Относительная влажность воздуха - влажноcть воздуха, измеренная на высоте 2 м над землей.
Te - Эффективная температура - температура, которую ощущает одетый по сезону человек в тени. Характеристика душности погоды. При расчете учитывается влияние влажности воздуха и скорости ветра на теплоощущения человека.
Tes - Эффективная температура на солнце - температура, которую ощущает человек, с поправкой на солнечный нагрев. Характеристика знойности погоды. Зависит от высоты солнца над горизонтом, облачности и скорости ветра. Ночью, в пасмурную погоду, а также при ветре 12 м/с и более поправка равна нулю.
P - Атмосферное давление - приведенное к уровню моря атмосферное давление.
Po - Атмосферное давление - измеренное на уровне метеостанции атмосферное давление.
Tmin - Минимальная температура - минимум температуры воздуха на высоте 2 м над землей.
Tmax - Максимальная температура - максимум температуры воздуха на высоте 2 м над землей.
R - Количество осадков - Количество выпавших осадков за период времени, мм. При наведении курсора мыши на число - период времени, за который выпало указанное количество осадков.
R24 - Количество осадков - Количество выпавших осадков за 24 часа, мм.
S - Снежный покров - Высота снежного покрова, см. При наведении курсора мыши на число - состояние снежного покрова и степень покрытия местности в баллах.